Starlink 30844

operational
NORAD ID: 58403 Int'l Des: 2023-180 Owner: SPXS Country: US Constellation: starlink
LEOCIRCULAR

Über Starlink 30844

Beschreibung wird geladen...

Live-Position

3D-Globus wird geladen...

Nächste Überflüge

Höhenverlauf

Altitude vs Time

uPlot chart will show altitude changes over time

Zweizeiliger Elementsatz

1 58403U 23180B 25352.14514904 -.00001056 00000-0 -63120-4 0 9999
2 58403 43.0033 139.5514 0001368 266.2649 93.8037 15.02539777115201
Epoch: 18. Dez. 2025 • Age: 10 hours

Aktueller Status

Höhe 560.5 km
Geschwindigkeit 7.58 km/s
Subsatellitenpunkt -10.38°S, 32.2°E
Startdatum 22. Nov. 2023
Alter 2 years
Typ internet

Technische Details

Klassifizierung Payload
Masse 730.00 kg
Trockenmasse 700.00 kg
Gesamtmasse 730.00 kg
Länge 0.30 m
Durchmesser 4.10 m
Spannweite 29.00 m
Form Box + pan
Hersteller SPXS
Bus-Typ Starlink V2M
Phasenstatus In Orbit
Besitzer/Staat SPXS/US

Große Konstellationen

Loading constellations...